{"data":{"norad_id":63990,"epoch":"2026-09-21T22:25:02.714016Z","epoch_age_seconds":75010,"freshness":"FRESH","line1":"1 63990U 25100J   26264.93405919  .00010024  00000+0  40633-3 0  9990","line2":"2 63990  97.3549 339.5846 0005459 331.6335  28.4605 15.24825813 75591","mean_motion":15.24825813,"eccentricity":0.0005459,"inclination_deg":97.3549,"raan_deg":339.5846,"arg_perigee_deg":331.6335,"mean_anomaly_deg":28.4605,"bstar":0.00040633,"rev_number":7559,"period_min":94.437016197076,"perigee_km":487.55850328446,"apogee_km":495.05856391804,"semimajor_km":6869.4455336012,"source":"CELESTRAK","updated_at":"2026-09-22T09:00:29.479874Z"}}